Plattsburgh, NY

8:10 AM EST on December 09, 2019 (GMT -0500)
Plattsburgh International

Weather History for KPBG - October, 2019

Change the Weather History Date:

Monday, October 14, 2019

  Actual Average Record
Temperature  
Mean Temperature 50 °F 48 °F  
Max Temperature 63 °F 58 °F 77 °F (1954)
Min Temperature 36 °F 38 °F 23 °F (1958)
Degree Days  
Heating Degree Days 16 17  
Month to date heating degree days 206  
Since 1 July heating degree days 441  
Cooling Degree Days 0 0  
Month to date cooling degree days 0  
Year to date cooling degree days 345  
Moisture  
Dew Point 40 °F    
Average Humidity 74    
Maximum Humidity 93    
Minimum Humidity 55    
Precipitation  
Precipitation 0.00 in - 1.50 in (1978)
Month to date precipitation  
Year to date precipitation  
Sea Level Pressure  
Sea Level Pressure 29.93 in    
Wind  
Wind Speed 2 mph ()    
Max Wind Speed 15 mph    
Max Gust Speed -    
Visibility 10.0 miles    
Events      
T = Trace of Precipitation, MM = Missing Value Source: Averaged Metar Reports

Daily Weather History Graph

Daily Weather History Graph

Search for Another Location

Airport or City:

Astronomy

Oct. 14, 2019 Rise Set
Actual Time 7:07 AM EDT 6:11 PM EDT
Civil Twilight 6:38 AM EDT 6:40 PM EDT
Nautical Twilight 6:04 AM EDT 7:14 PM EDT
Astronomical Twilight 5:30 AM EDT 7:48 PM EDT
Moon 6:59 PM EDT (10/14) 7:35 AM EDT (10/14)
Length of Visible Light 12h 02m
Length of Day
11h 03m
Waxing Gibbous, 99% of the Moon is Illuminated
Oct 14
Waxing Gibbous
Oct 21
Last Quarter
Oct 27
New
Nov 4
First Quarter
Nov 12
Full

Hourly Weather History & Observations

Time (EDT) Temp. Dew Point Humidity Pressure Visibility Wind Dir Wind Speed Gust Speed Precip Events Conditions
12:53 AM 37.9 °F 36.0 °F 93% 29.94 in 10.0 mi Calm Calm - N/A   Clear
1:53 AM 39.0 °F 36.0 °F 89% 29.94 in 10.0 mi Calm Calm - N/A   Clear
2:53 AM 37.0 °F 35.1 °F 93% 29.92 in 10.0 mi Calm Calm - N/A   Clear
3:53 AM 36.0 °F 33.1 °F 89% 29.91 in 10.0 mi Calm Calm - N/A   Clear
4:53 AM 36.0 °F 34.0 °F 93% 29.91 in 10.0 mi Calm Calm - N/A   Clear
5:53 AM 37.0 °F 35.1 °F 93% 29.91 in 10.0 mi Calm Calm - N/A   Clear
6:53 AM 37.9 °F 36.0 °F 93% 29.90 in 10.0 mi Calm Calm - N/A   Clear
7:53 AM 39.9 °F 37.0 °F 89% 29.90 in 10.0 mi Calm Calm - N/A   Clear
8:53 AM 44.1 °F 39.9 °F 85% 29.90 in 10.0 mi Calm Calm - N/A   Clear
9:53 AM 48.9 °F 44.1 °F 83% 29.91 in 10.0 mi Calm Calm - N/A   Clear
10:53 AM 59.0 °F 45.0 °F 60% 29.89 in 10.0 mi Calm Calm - N/A   Clear
11:53 AM 61.0 °F 48.0 °F 62% 29.87 in 10.0 mi SE 10.4 mph - N/A   Clear
12:53 PM 63.0 °F 48.0 °F 58% 29.85 in 10.0 mi SE 15.0 mph - N/A   Clear
1:53 PM 62.1 °F 48.0 °F 60% 29.84 in 10.0 mi SE 10.4 mph - N/A   Overcast
2:53 PM 60.1 °F 50.0 °F 69% 29.85 in 10.0 mi NNW 3.5 mph - N/A   Overcast
3:53 PM 59.0 °F 44.1 °F 58% 29.88 in 10.0 mi NW 10.4 mph - N/A   Overcast
4:53 PM 59.0 °F 43.0 °F 55% 29.91 in 10.0 mi Calm Calm - N/A   Overcast
5:53 PM 55.0 °F 41.0 °F 59% 29.94 in 10.0 mi North - - N/A   Scattered Clouds
6:53 PM 54.0 °F 37.9 °F 55% 29.97 in 10.0 mi North - - N/A   Clear
7:53 PM 51.1 °F 36.0 °F 56% 29.99 in 10.0 mi Variable 3.5 mph - N/A   Clear
8:53 PM 50.0 °F 35.1 °F 57% 30.01 in 10.0 mi Variable 3.5 mph - N/A   Clear
9:53 PM 46.0 °F 35.1 °F 66% 30.03 in 10.0 mi Calm Calm - N/A   Clear
10:53 PM 44.1 °F 35.1 °F 71% 30.04 in 10.0 mi Calm Calm - N/A   Clear
11:53 PM 42.1 °F 36.0 °F 79% 30.04 in 10.0 mi Calm Calm - N/A   Clear